Indianapolis, IN

2:25 PM EST on December 07, 2019 (GMT -0500)
Indianapolis International

Weather History for KIND - November, 2019

Change the Weather History Date:

Tuesday, November 12, 2019

  Actual Average Record
Temperature  
Mean Temperature 14 °F 45 °F  
Max Temperature 21 °F 54 °F 75 °F (1949)
Min Temperature 8 °F 37 °F 14 °F (1911)
Degree Days  
Heating Degree Days 50 20  
Month to date heating degree days 331 209  
Since 1 July heating degree days 626 610  
Cooling Degree Days 0 0  
Month to date cooling degree days 0 0  
Year to date cooling degree days 1344 1065  
Moisture  
Dew Point 5 °F    
Average Humidity 67    
Maximum Humidity 84    
Minimum Humidity 56    
Precipitation  
Precipitation T in 0.12 in 1.64 in (1925)
Month to date precipitation 0.33 1.39  
Year to date precipitation 41.83 36.96  
Snow  
Snow T in 0.10 in 0.80 in (1991)
Month to date snowfall 2.8 0.2  
Since 1 July snowfall 2.8 0.6  
Since 1 September snowfall 2.8 0.6  
Snow Depth 2.0 in    
Sea Level Pressure  
Sea Level Pressure 30.46 in    
Wind  
Wind Speed 13 mph ()    
Max Wind Speed 26 mph    
Max Gust Speed 35 mph    
Visibility 9.6 miles    
Events Snow    
T = Trace of Precipitation, MM = Missing Value Source: Averaged Metar Reports

Daily Weather History Graph

Daily Weather History Graph

Search for Another Location

Airport or City:

Astronomy

Nov. 12, 2019 Rise Set
Actual Time 7:25 AM EST 5:32 PM EST
Civil Twilight 6:57 AM EST 6:00 PM EST
Nautical Twilight 6:24 AM EST 6:33 PM EST
Astronomical Twilight 5:53 AM EST 7:04 PM EST
Moon 5:58 PM EST (11/12) 7:17 AM EST (11/12)
Length of Visible Light 11h 03m
Length of Day
10h 06m
Full, 100% of the Moon is Illuminated
Nov 12
Full
Nov 19
Last Quarter
Nov 26
New
Dec 4
First Quarter
Dec 12
Full

Hourly Weather History & Observations

Time (EST) Temp. Windchill Dew Point Humidity Pressure Visibility Wind Dir Wind Speed Gust Speed Precip Events Conditions
12:54 AM 19.9 °F 3.5 °F 14.0 °F 78% 30.33 in 6.0 mi NW 21.9 mph 33.4 mph 0.00 in Snow Light Snow
1:54 AM 18.0 °F 0.6 °F 10.0 °F 71% 30.34 in 7.0 mi NW 23.0 mph 33.4 mph 0.00 in   Overcast
2:54 AM 16.0 °F -1.7 °F 7.0 °F 68% 30.36 in 8.0 mi NW 21.9 mph 29.9 mph N/A   Overcast
3:54 AM 14.0 °F -3.4 °F 5.0 °F 67% 30.37 in 10.0 mi NW 19.6 mph - N/A   Partly Cloudy
4:54 AM 12.0 °F -5.1 °F 3.9 °F 70% 30.39 in 10.0 mi NW 17.3 mph - N/A   Partly Cloudy
5:54 AM 10.9 °F -5.9 °F 3.0 °F 70% 30.40 in 10.0 mi WNW 16.1 mph - N/A   Partly Cloudy
6:54 AM 9.0 °F -6.6 °F 1.9 °F 73% 30.43 in 10.0 mi WNW 12.7 mph - N/A   Partly Cloudy
7:54 AM 9.0 °F -5.9 °F 1.9 °F 73% 30.45 in 10.0 mi WNW 11.5 mph - N/A   Partly Cloudy
8:54 AM 10.9 °F -2.6 °F 3.0 °F 70% 30.48 in 10.0 mi WNW 10.4 mph - N/A   Partly Cloudy
9:54 AM 12.9 °F -1.6 °F 3.9 °F 67% 30.50 in 10.0 mi NW 12.7 mph - N/A   Partly Cloudy
10:54 AM 14.0 °F -1.4 °F 5.0 °F 67% 30.51 in 10.0 mi NW 15.0 mph - N/A   Partly Cloudy
11:54 AM 16.0 °F 1.1 °F 7.0 °F 68% 30.50 in 10.0 mi NW 15.0 mph 21.9 mph N/A   Clear
12:54 PM 18.0 °F 4.2 °F 7.0 °F 62% 30.49 in 10.0 mi NW 13.8 mph - N/A   Clear
1:54 PM 19.0 °F 6.8 °F 8.1 °F 62% 30.48 in 10.0 mi NNW 11.5 mph - N/A   Partly Cloudy
2:54 PM 19.0 °F 6.1 °F 7.0 °F 59% 30.48 in 10.0 mi NW 12.7 mph - N/A   Partly Cloudy
3:54 PM 19.0 °F 6.1 °F 7.0 °F 59% 30.48 in 10.0 mi NW 12.7 mph - N/A   Partly Cloudy
4:54 PM 18.0 °F 6.1 °F 5.0 °F 57% 30.50 in 10.0 mi NW 10.4 mph - N/A   Partly Cloudy
5:54 PM 15.1 °F 2.5 °F 3.9 °F 61% 30.51 in 10.0 mi NNW 10.4 mph - N/A   Partly Cloudy
6:54 PM 14.0 °F 3.9 °F 1.9 °F 59% 30.52 in 10.0 mi WNW 6.9 mph - N/A   Clear
7:54 PM 12.9 °F 2.6 °F 3.9 °F 67% 30.51 in 10.0 mi WNW 6.9 mph - N/A   Scattered Clouds
8:54 PM 12.0 °F 2.7 °F 3.0 °F 67% 30.51 in 10.0 mi WNW 5.8 mph - N/A   Mostly Cloudy
9:54 PM 12.0 °F 4.1 °F 3.0 °F 67% 30.50 in 10.0 mi WNW 4.6 mph - N/A   Mostly Cloudy
10:54 PM 10.9 °F - 3.0 °F 70% 30.48 in 10.0 mi Calm Calm - N/A   Scattered Clouds
11:54 PM 10.0 °F 1.8 °F 3.0 °F 73% 30.48 in 10.0 mi West 4.6 mph - N/A   Scattered Clouds